Home > Weather > Tulsa > Past weeks

Flag for USA Weather for the Past 2 Weeks in Tulsa, Oklahoma, USA

Now
60 °F

Passing clouds.


Feels Like: 60 °F
Forecast: 51 / 82 °F
Wind: 3 mph from Northwest

Location: Tulsa International Airport

Current Time: May 6, 2016 at 12:43:22 AM

Latest Report: May 5, 2016 at 11:53 PM


Visibility: 10 mi

Pressure: 30.02 "Hg

Humidity: 69%

Dew Point: 50 °F

Location of TulsaLocation

Historic Weather in Tulsa — Graph

°F

Tulsa Temperature Yesterday

Maximum temperature yesterday: 79 °F (at 3:53 PM)
Minimum temperature yesterday: 48 °F (at 6:53 AM)
Average temperature yesterday: 65 °F

High & Low Weather Summary for the Past Weeks

 TemperatureHumidityPressure
High83 °F (Apr 26, 4:53 PM)100% (Apr 21, 5:53 AM)30.15 "Hg (Apr 21, 5:53 AM)
Low43 °F (May 3, 6:01 AM)24% (May 4, 3:53 PM)29.48 "Hg (Apr 26, 6:53 PM)
Average65 °F68%29.87 "Hg
* Reported Apr 20 10:53 PM — May 5 10:53 PM, Tulsa, Weather by CustomWeather, © 2016

Note: Actual official high and low records may vary slightly from our data, if they occured in-between our weather recording intervals... More about our weather records

Advertising

Tulsa Weather History for the Previous 24 Hours

Scroll right to see more
 ConditionsComfort  
Time TempWeatherWind HumidityBarometerVisibility
10:53 PM
Thu, May 5
65 °FPassing clouds.No wind54%30.03 "Hg10 mi
9:53 PM67 °FPassing clouds.3 mph49%30.00 "Hg10 mi
8:53 PM69 °FScattered clouds.3 mph45%29.98 "Hg10 mi
7:53 PM71 °FScattered clouds.5 mph44%29.97 "Hg10 mi
6:53 PM77 °FPassing clouds.7 mph31%29.96 "Hg10 mi
5:53 PM79 °FPassing clouds.8 mph31%29.98 "Hg10 mi
4:53 PM79 °FPassing clouds.10 mph30%29.98 "Hg10 mi
3:53 PM79 °FPassing clouds.12 mph30%29.99 "Hg10 mi
2:53 PM78 °FPassing clouds.8 mph31%30.02 "Hg10 mi
1:53 PM76 °FSunny.7 mph31%30.03 "Hg10 mi
12:53 PM75 °FSunny.5 mph33%30.05 "Hg10 mi
11:53 AM74 °FSunny.8 mph37%30.07 "Hg10 mi
10:53 AM70 °FSunny.5 mph39%30.09 "Hg10 mi
9:53 AM66 °FSunny.No wind54%30.08 "Hg10 mi
8:53 AM59 °FSunny.3 mph69%30.08 "Hg10 mi
7:53 AM54 °FSunny.No wind83%30.06 "Hg10 mi
6:53 AM48 °FClear.No wind89%30.04 "Hg10 mi
5:53 AM49 °FClear.No wind84%30.02 "Hg10 mi
4:53 AM51 °FClear.3 mph77%30.01 "Hg10 mi
3:53 AM51 °FClear.5 mph77%29.99 "Hg10 mi
2:53 AM53 °FClear.3 mph72%29.99 "Hg10 mi
1:53 AM56 °FClear.3 mph65%30.00 "Hg10 mi
12:53 AM57 °FClear.No wind67%29.99 "Hg10 mi
Weather by CustomWeather, © 2016

See weather overviewHow to use our weather pages